Back to catalog

SL-8 DEB

AliveLEO
NORAD 21115·DEBRIS·🇷🇺 Russia

Launched Feb 12, 1991 from Plesetsk Cosmodrome

Loading…

Next Passes (next 24 hours)

TLE

FreshSource: Space-Track

Epoch: Sep 14, 2026, 05:53 UTC

1 21115U 91009M   26257.24554823 -.00000087  00000-0 -68343-3 0  9998
2 21115  74.0393 185.5534 0183557 274.8371 239.9261 12.16943311580017

Track SL-8 DEB in real time with AllMySat

Download on the App Store